| time (UTC) | temp C | wind direction | speed KPH | gust KPH | rain 1hr cm | rain 24hr cm | rain mn cm | humidity % | barometer mb |
| 20260905132017 | 31 | 97 | 11.3 | 17.7 | 0.00 | 0.00 | 0.00 | 52 | 1019.4 |
| 20260905131033 | 31 | 95 | 11.3 | 17.7 | 0.00 | 0.00 | 0.00 | 54 | 1019.4 |
| 20260905130028 | 31 | 109 | 9.7 | 17.7 | 0.00 | 0.00 | 0.00 | 56 | 1019.4 |
| 20260905125022 | 31 | 99 | 11.3 | 17.7 | 0.00 | 0.00 | 0.00 | 54 | 1019.6 |
| 20260905124038 | 31 | 101 | 8.0 | 17.7 | 0.00 | 0.00 | 0.00 | 56 | 1019.6 |
| 20260905123053 | 31 | 106 | 8.0 | 16.1 | 0.00 | 0.00 | 0.00 | 58 | 1019.7 |
| 20260905122049 | 31 | 112 | 11.3 | 17.7 | 0.00 | 0.00 | 0.00 | 56 | 1019.7 |
| 20260905121023 | 32 | 102 | 11.3 | 20.9 | 0.00 | 0.00 | 0.00 | 55 | 1019.6 |
| 20260905120039 | 32 | 123 | 14.5 | 20.9 | 0.00 | 0.00 | 0.00 | 49 | 1019.7 |
| 20260905115114 | 32 | 122 | 12.9 | 17.7 | 0.00 | 0.00 | 0.00 | 50 | 1019.5 |
| 20260905114030 | 32 | 102 | 12.9 | 17.7 | 0.00 | 0.00 | 0.00 | 52 | 1019.5 |
| 20260905113025 | 32 | 122 | 12.9 | 20.9 | 0.00 | 0.00 | 0.00 | 49 | 1019.5 |
| 20260905112020 | 32 | 125 | 11.3 | 17.7 | 0.00 | 0.00 | 0.00 | 54 | 1019.5 |
| 20260905111035 | 32 | 123 | 6.4 | 16.1 | 0.00 | 0.00 | 0.00 | 56 | 1019.5 |
| 20260905110030 | 32 | 118 | 8.0 | 14.5 | 0.00 | 0.00 | 0.00 | 54 | 1019.5 |
| 20260905105025 | 33 | 161 | 6.4 | 9.7 | 0.00 | 0.00 | 0.00 | 43 | 1019.4 |
| 20260905104020 | 33 | 121 | 4.8 | 12.9 | 0.00 | 0.00 | 0.00 | 45 | 1019.4 |
| 20260905103035 | 34 | 152 | 3.2 | 6.4 | 0.00 | 0.00 | 0.00 | 42 | 1019.6 |
| 20260905102030 | 33 | 185 | 3.2 | 9.7 | 0.00 | 0.00 | 0.00 | 41 | 1019.5 |
| 20260905101026 | 33 | 177 | 3.2 | 9.7 | 0.00 | 0.00 | 0.00 | 44 | 1019.5 |
| 20260905100021 | 33 | 180 | 3.2 | 9.7 | 0.00 | 0.00 | 0.00 | 44 | 1019.4 |
| 20260905095016 | 32 | 171 | 1.6 | 4.8 | 0.00 | 0.00 | 0.00 | 46 | 1019.4 |
| 20260905094031 | 33 | 159 | 1.6 | 4.8 | 0.00 | 0.00 | 0.00 | 47 | 1019.4 |
| 20260905093026 | 32 | 139 | 0.0 | 3.2 | 0.00 | 0.00 | 0.00 | 49 | 1019.3 |
| 20260905092021 | 31 | 281 | 3.2 | 4.8 | 0.00 | 0.00 | 0.00 | 53 | 1019.2 |
| 20260905091017 | 30 | 277 | 3.2 | 9.7 | 0.00 | 0.00 | 0.00 | 55 | 1019.2 |
| 20260905090032 | 29 | 247 | 3.2 | 11.3 | 0.00 | 0.00 | 0.00 | 59 | 1019.1 |
| 20260905085027 | 28 | 343 | 1.6 | 4.8 | 0.00 | 0.00 | 0.00 | 62 | 1019.0 |
| 20260905084022 | 28 | 254 | 8.0 | 14.5 | 0.00 | 0.00 | 0.00 | 64 | 1019.1 |
| 20260905083018 | 27 | 303 | 6.4 | 9.7 | 0.00 | 0.00 | 0.00 | 69 | 1018.8 |
| 20260905082033 | 27 | 268 | 4.8 | 12.9 | 0.00 | 0.00 | 0.00 | 71 | 1018.9 |
| 20260905081028 | 27 | 292 | 3.2 | 12.9 | 0.00 | 0.00 | 0.00 | 74 | 1018.9 |
| 20260905080024 | 26 | 255 | 4.8 | 9.7 | 0.00 | 0.00 | 0.00 | 76 | 1018.9 |
| 20260905075019 | 26 | 265 | 8.0 | 12.9 | 0.00 | 0.00 | 0.00 | 73 | 1019.1 |
| 20260905074045 | 26 | 322 | 3.2 | 9.7 | 0.00 | 0.00 | 0.00 | 71 | 1018.9 |
| 20260905073020 | 26 | 297 | 3.2 | 6.4 | 0.00 | 0.00 | 0.00 | 70 | 1018.9 |
| 20260905072034 | 26 | 288 | 1.6 | 4.8 | 0.00 | 0.00 | 0.00 | 70 | 1018.9 |
| 20260905071030 | 25 | 337 | 1.6 | 3.2 | 0.00 | 0.00 | 0.00 | 71 | 1018.8 |
| 20260905070025 | 25 | 2 | 0.0 | 3.2 | 0.00 | 0.00 | 0.00 | 73 | 1018.7 |
| 20260905065021 | 25 | 322 | 0.0 | 3.2 | 0.00 | 0.00 | 0.00 | 74 | 1018.4 |
| 20260905064016 | 24 | 273 | 1.6 | 3.2 | 0.00 | 0.00 | 0.00 | 77 | 1018.6 |
| 20260905063031 | 23 | 301 | 1.6 | 4.8 | 0.00 | 0.00 | 0.00 | 79 | 1018.6 |
| 20260905062026 | 23 | 310 | 1.6 | 3.2 | 0.00 | 0.00 | 0.00 | 82 | 1018.8 |
| 20260905061021 | 23 | 298 | 1.6 | 3.2 | 0.00 | 0.00 | 0.00 | 83 | 1018.6 |
| 20260905060016 | 23 | 297 | 1.6 | 4.8 | 0.00 | 0.00 | 0.00 | 84 | 1018.6 |
| 20260905055032 | 23 | 312 | 0.0 | 1.6 | 0.00 | 0.00 | 0.00 | 84 | 1018.6 |
| 20260905054027 | 23 | 307 | 0.0 | 3.2 | 0.00 | 0.00 | 0.00 | 84 | 1018.6 |
| 20260905053022 | 23 | 302 | 0.0 | 1.6 | 0.00 | 0.00 | 0.00 | 83 | 1018.4 |
| 20260905052017 | 23 | 291 | 1.6 | 3.2 | 0.00 | 0.00 | 0.00 | 83 | 1018.5 |
| 20260905051033 | 23 | 276 | 1.6 | 3.2 | 0.00 | 0.00 | 0.00 | 82 | 1018.3 |
| 20260905050028 | 23 | 276 | 1.6 | 3.2 | 0.00 | 0.00 | 0.00 | 82 | 1018.4 |
| 20260905045023 | 23 | 278 | 1.6 | 3.2 | 0.00 | 0.00 | 0.00 | 82 | 1018.3 |
| 20260905044039 | 23 | 267 | 3.2 | 4.8 | 0.00 | 0.00 | 0.00 | 82 | 1018.2 |
| 20260905043035 | 23 | 260 | 3.2 | 4.8 | 0.00 | 0.00 | 0.00 | 82 | 1018.3 |
| 20260905042030 | 23 | 254 | 3.2 | 4.8 | 0.00 | 0.00 | 0.00 | 82 | 1018.3 |
| 20260905041025 | 23 | 259 | 1.6 | 3.2 | 0.00 | 0.00 | 0.00 | 84 | 1018.1 |
| 20260905040021 | 24 | 251 | 3.2 | 4.8 | 0.00 | 0.00 | 0.00 | 84 | 1018.3 |
| 20260905035055 | 24 | 253 | 3.2 | 4.8 | 0.00 | 0.00 | 0.00 | 84 | 1018.2 |
| 20260905034051 | 24 | 241 | 1.6 | 3.2 | 0.00 | 0.00 | 0.00 | 84 | 1018.2 |
| 20260905033046 | 24 | 235 | 1.6 | 1.6 | 0.00 | 0.00 | 0.00 | 85 | 1018.0 |
| 20260905032021 | 24 | 246 | 1.6 | 3.2 | 0.00 | 0.00 | 0.00 | 86 | 1018.0 |
| 20260905031017 | 24 | 299 | 0.0 | 1.6 | 0.00 | 0.00 | 0.00 | 86 | 1018.1 |
| 20260905030032 | 24 | 0.0 | 0.0 | 0.00 | 0.00 | 0.00 | 86 | 1018.1 | |
| 20260905025027 | 24 | 0.0 | 0.0 | 0.00 | 0.00 | 0.00 | 86 | 1018.1 | |
| 20260905024022 | 24 | 0.0 | 0.0 | 0.00 | 0.00 | 0.00 | 86 | 1017.9 | |
| 20260905023018 | 24 | 301 | 1.6 | 1.6 | 0.00 | 0.00 | 0.00 | 87 | 1018.0 |
| 20260905022033 | 23 | 0.0 | 0.0 | 0.00 | 0.00 | 0.00 | 87 | 1018.0 | |
| 20260905021028 | 23 | 0.0 | 0.0 | 0.00 | 0.00 | 0.00 | 86 | 1017.8 | |
| 20260905020023 | 24 | 0.0 | 0.0 | 0.00 | 0.00 | 0.00 | 86 | 1017.8 | |
| 20260905015019 | 24 | 302 | 0.0 | 1.6 | 0.00 | 0.00 | 0.00 | 86 | 1017.9 |
| 20260905014034 | 24 | 308 | 1.6 | 1.6 | 0.00 | 0.00 | 0.00 | 87 | 1017.9 |
| 20260905013029 | 23 | 347 | 0.0 | 1.6 | 0.00 | 0.00 | 0.00 | 87 | 1018.0 |
| 20260905012025 | 24 | 2 | 0.0 | 1.6 | 0.00 | 0.00 | 0.00 | 86 | 1018.0 |
| 20260905011020 | 24 | 347 | 0.0 | 1.6 | 0.00 | 0.00 | 0.00 | 86 | 1018.2 |
| 20260905010035 | 24 | 0.0 | 0.0 | 0.00 | 0.00 | 0.00 | 86 | 1018.1 | |
| 20260905005031 | 24 | 0.0 | 0.0 | 0.00 | 0.00 | 0.00 | 86 | 1018.1 | |
| 20260905004026 | 24 | 0.0 | 0.0 | 0.00 | 0.00 | 0.00 | 86 | 1017.9 | |
| 20260905003021 | 25 | 0.0 | 0.0 | 0.00 | 0.00 | 0.00 | 84 | 1017.9 | |
| 20260905002016 | 25 | 0.0 | 0.0 | 0.00 | 0.00 | 0.00 | 83 | 1017.9 | |
| 20260905001112 | 25 | 0.0 | 0.0 | 0.00 | 0.00 | 0.00 | 84 | 1017.9 | |
| 20260905000047 | 25 | 345 | 0.0 | 1.6 | 0.00 | 0.00 | 0.00 | 84 | 1018.0 |
| 20260904235042 | 25 | 0.0 | 0.0 | 0.00 | 0.00 | 0.00 | 84 | 1018.1 | |
| 20260904234017 | 25 | 0.0 | 0.0 | 0.00 | 0.00 | 0.00 | 84 | 1018.2 | |
| 20260904233052 | 25 | 0.0 | 0.0 | 0.00 | 0.00 | 0.00 | 84 | 1018.0 | |
| 20260904232047 | 25 | 0.0 | 0.0 | 0.00 | 0.00 | 0.00 | 84 | 1018.1 | |
| 20260904231022 | 25 | 0.0 | 0.0 | 0.00 | 0.00 | 0.00 | 84 | 1018.0 | |
| 20260904230038 | 25 | 0.0 | 0.0 | 0.00 | 0.00 | 0.00 | 84 | 1018.1 | |
| 20260904225033 | 25 | 0.0 | 0.0 | 0.00 | 0.00 | 0.00 | 84 | 1018.0 | |
| 20260904224048 | 25 | 0.0 | 0.0 | 0.00 | 0.00 | 0.00 | 84 | 1018.0 | |
| 20260904223024 | 25 | 0.0 | 0.0 | 0.00 | 0.00 | 0.00 | 84 | 1017.9 | |
| 20260904222020 | 25 | 0.0 | 0.0 | 0.00 | 0.00 | 0.00 | 84 | 1017.9 | |
| 20260904221034 | 25 | 0.0 | 0.0 | 0.00 | 0.00 | 0.00 | 84 | 1017.9 | |
| 20260904220030 | 26 | 27 | 1.6 | 1.6 | 0.00 | 0.00 | 0.00 | 83 | 1017.9 |
| 20260904215025 | 26 | 0.0 | 0.0 | 0.00 | 0.00 | 0.00 | 83 | 1017.9 | |
| 20260904214041 | 26 | 0.0 | 0.0 | 0.00 | 0.00 | 0.00 | 83 | 1017.9 | |
| 20260904213017 | 26 | 75 | 0.0 | 1.6 | 0.00 | 0.00 | 0.00 | 82 | 1017.9 |
| 20260904212112 | 26 | 0.0 | 0.0 | 0.00 | 0.00 | 0.00 | 82 | 1018.0 | |
| 20260904211027 | 26 | 0.0 | 0.0 | 0.00 | 0.00 | 0.00 | 82 | 1018.1 | |
| 20260904210023 | 26 | 71 | 0.0 | 1.6 | 0.00 | 0.00 | 0.00 | 82 | 1018.2 |
| 20260904205018 | 26 | 55 | 0.0 | 4.8 | 0.00 | 0.00 | 0.00 | 82 | 1018.1 |
| 20260904204033 | 26 | 40 | 0.0 | 3.2 | 0.00 | 0.00 | 0.00 | 82 | 1018.1 |
| 20260904203029 | 26 | 61 | 0.0 | 1.6 | 0.00 | 0.00 | 0.00 | 82 | 1017.9 |
| 20260904202024 | 26 | 64 | 0.0 | 3.2 | 0.00 | 0.00 | 0.00 | 82 | 1018.0 |
| 20260904201020 | 26 | 66 | 1.6 | 4.8 | 0.00 | 0.00 | 0.00 | 82 | 1017.8 |
| 20260904200035 | 26 | 71 | 1.6 | 6.4 | 0.00 | 0.00 | 0.00 | 81 | 1017.7 |
| 20260904195110 | 26 | 58 | 1.6 | 3.2 | 0.00 | 0.00 | 0.00 | 80 | 1017.6 |
| 20260904194025 | 26 | 60 | 0.0 | 3.2 | 0.00 | 0.00 | 0.00 | 80 | 1017.4 |
| 20260904193020 | 26 | 76 | 0.0 | 3.2 | 0.00 | 0.00 | 0.00 | 79 | 1017.4 |
| 20260904192016 | 26 | 49 | 0.0 | 1.6 | 0.00 | 0.00 | 0.00 | 79 | 1017.3 |
| 20260904191032 | 26 | 78 | 1.6 | 3.2 | 0.00 | 0.00 | 0.00 | 79 | 1017.2 |
| 20260904190048 | 26 | 76 | 0.0 | 3.2 | 0.00 | 0.00 | 0.00 | 79 | 1017.1 |
| 20260904185023 | 27 | 62 | 1.6 | 4.8 | 0.00 | 0.00 | 0.00 | 79 | 1017.0 |
| 20260904184018 | 26 | 62 | 1.6 | 3.2 | 0.00 | 0.00 | 0.00 | 78 | 1016.9 |
| 20260904183034 | 26 | 74 | 1.6 | 4.8 | 0.00 | 0.00 | 0.00 | 78 | 1016.8 |
| 20260904182029 | 27 | 75 | 1.6 | 4.8 | 0.00 | 0.00 | 0.00 | 78 | 1016.8 |
| 20260904181024 | 27 | 69 | 1.6 | 4.8 | 0.00 | 0.00 | 0.00 | 77 | 1017.0 |
| 20260904180019 | 27 | 67 | 1.6 | 9.7 | 0.00 | 0.00 | 0.00 | 76 | 1016.8 |
| 20260904175035 | 27 | 69 | 3.2 | 6.4 | 0.00 | 0.00 | 0.00 | 76 | 1016.7 |
| 20260904174030 | 27 | 76 | 3.2 | 12.9 | 0.00 | 0.00 | 0.00 | 75 | 1016.8 |
| 20260904173026 | 28 | 86 | 1.6 | 9.7 | 0.00 | 0.00 | 0.00 | 75 | 1016.7 |
| 20260904172020 | 28 | 73 | 3.2 | 11.3 | 0.00 | 0.00 | 0.00 | 74 | 1016.7 |
| 20260904171016 | 28 | 58 | 1.6 | 6.4 | 0.00 | 0.00 | 0.00 | 74 | 1016.7 |
| 20260904170031 | 28 | 62 | 4.8 | 11.3 | 0.00 | 0.00 | 0.00 | 73 | 1016.7 |
| 20260904165027 | 28 | 54 | 4.8 | 9.7 | 0.00 | 0.00 | 0.00 | 73 | 1016.6 |
| 20260904164021 | 28 | 63 | 4.8 | 11.3 | 0.00 | 0.00 | 0.00 | 74 | 1016.7 |
| 20260904163017 | 28 | 99 | 9.7 | 16.1 | 0.00 | 0.00 | 0.00 | 74 | 1016.7 |
| 20260904162033 | 28 | 92 | 6.4 | 16.1 | 0.00 | 0.00 | 0.00 | 72 | 1016.8 |
| 20260904161028 | 28 | 76 | 6.4 | 17.7 | 0.00 | 0.00 | 0.00 | 73 | 1017.0 |
| 20260904160023 | 28 | 96 | 8.0 | 16.1 | 0.00 | 0.00 | 0.00 | 75 | 1017.0 |
| 20260904155018 | 28 | 86 | 6.4 | 12.9 | 0.00 | 0.00 | 0.00 | 73 | 1016.9 |
| 20260904154054 | 29 | 98 | 3.2 | 11.3 | 0.00 | 0.00 | 0.00 | 72 | 1016.7 |
| 20260904153028 | 28 | 93 | 9.7 | 20.9 | 0.00 | 0.00 | 0.00 | 73 | 1016.7 |
| 20260904152024 | 29 | 109 | 4.8 | 12.9 | 0.00 | 0.00 | 0.00 | 71 | 1016.7 |
| 20260904151019 | 28 | 93 | 8.0 | 17.7 | 0.00 | 0.00 | 0.00 | 72 | 1016.7 |
| 20260904150035 | 28 | 94 | 9.7 | 20.9 | 0.00 | 0.00 | 0.00 | 72 | 1016.8 |
| 20260904145029 | 28 | 86 | 8.0 | 24.1 | 0.00 | 0.00 | 0.00 | 73 | 1016.8 |
| 20260904144025 | 28 | 95 | 12.9 | 25.7 | 0.00 | 0.00 | 0.00 | 73 | 1016.7 |
| 20260904143040 | 28 | 110 | 12.9 | 24.1 | 0.00 | 0.00 | 0.00 | 74 | 1016.8 |
| 20260904142015 | 28 | 91 | 14.5 | 25.7 | 0.00 | 0.00 | 0.00 | 76 | 1016.7 |
| 20260904141032 | 28 | 98 | 14.5 | 27.4 | 0.00 | 0.00 | 0.00 | 73 | 1016.8 |
| 20260904140026 | 29 | 93 | 12.9 | 30.6 | 0.00 | 0.00 | 0.00 | 70 | 1017.0 |
| 20260904135041 | 30 | 117 | 11.3 | 20.9 | 0.00 | 0.00 | 0.00 | 66 | 1017.0 |
| 20260904134017 | 29 | 109 | 11.3 | 24.1 | 0.00 | 0.00 | 0.00 | 67 | 1017.0 |
| 20260904133033 | 30 | 108 | 9.7 | 22.5 | 0.00 | 0.00 | 0.00 | 67 | 1017.1 |